QPF
0.00 0.01 0.01 0.01 0.02 0.03 0.02 0.01 0.01 0.00 0.00 0.00 0.00 0.01 0.01 0.01 0.01 0.01 0.01 0.02 0.02 0.02 0.02 0.01 0.00 0.00 0.00 0.00 0.00 0.01 0.01 0.01 0.01 0.01 0.01 0.01 0.01 0.01 0.01 0.01 0.01 0.01 0.00
0.00 0.01 0.02 0.02 0.05 0.05 0.03 0.01 0.01 0.00 0.00 0.00 0.00 0.01 0.01 0.01 0.02 0.01 0.02 0.02 0.03 0.03 0.04 0.04 0.02 0.02 0.01 0.01 0.02 0.01 0.02 0.01 0.01 0.01 0.02 0.01 0.02 0.02 0.02 0.01 0.01 0.00 0.00
0.01 0.02 0.02 0.04 0.08 0.06 0.04 0.03 0.02 0.01 0.01 0.00 0.00 0.01 0.01 0.02 0.03 0.03 0.03 0.04 0.04 0.04 0.05 0.04 0.04 0.04 0.03 0.03 0.03 0.02 0.02 0.02 0.02 0.02 0.02 0.01 0.02 0.01 0.01 0.01 0.00 0.00 0.00
0.01 0.02 0.02 0.06 0.07 0.06 0.05 0.05 0.05 0.03 0.01 0.01 0.01 0.02 0.03 0.03 0.03 0.03 0.04 0.05 0.06 0.07 0.06 0.04 0.04 0.04 0.04 0.03 0.03 0.02 0.03 0.03 0.03 0.02 0.01 0.01 0.01 0.00 0.00 0.00 0.00 0.00 0.00
0.03 0.04 0.06 0.09 0.09 0.08 0.07 0.06 0.05 0.05 0.05 0.05 0.03 0.03 0.02 0.03 0.03 0.03 0.03 0.05 0.05 0.06 0.07 0.05 0.03 0.02 0.02 0.02 0.02 0.02 0.02 0.02 0.02 0.02 0.01 0.00 0.00 0.00 0.00 0.00 0.00 0.00 0.00
0.06 0.07 0.09 0.11 0.12 0.12 0.11 0.10 0.08 0.08 0.07 0.07 0.04 0.03 0.02 0.02 0.02 0.02 0.02 0.02 0.02 0.02 0.02 0.02 0.02 0.01 0.01 0.01 0.01 0.01 0.01 0.01 0.01 0.00 0.00 0.00 0.00 0.00 0.00 0.00 0.00 0.00 0.00
0.14 0.15 0.17 0.17 0.16 0.17 0.17 0.15 0.13 0.11 0.09 0.07 0.06 0.05 0.04 0.03 0.03 0.02 0.01 0.01 0.01 0.01 0.01 0.01 0.01 0.01 0.01 0.01 0.01 0.01 0.01 0.01 0.01 0.01 0.01 0.01 0.01 0.01 0.00 0.00 0.00 0.00 0.00
0.24 0.28 0.28 0.28 0.26 0.27 0.22 0.19 0.17 0.15 0.12 0.09 0.09 0.08 0.05 0.03 0.02 0.01 0.01 0.01 0.01 0.01 0.01 0.01 0.01 0.01 0.01 0.01 0.01 0.01 0.01 0.01 0.01 0.01 0.01 0.02 0.01 0.01 0.01 0.01 0.01 0.01 0.01
0.28 0.34 0.34 0.34 0.33 0.31 0.28 0.26 0.24 0.19 0.14 0.09 0.07 0.07 0.06 0.06 0.02 0.01 0.01 0.01 0.01 0.01 0.01 0.01 0.01 0.00 0.00 0.00 0.00 0.00 0.00 0.00 0.00 0.00 0.01 0.01 0.01 0.01 0.01 0.01 0.01 0.02 0.02
0.37 0.38 0.35 0.30 0.29 0.29 0.27 0.27 0.25 0.17 0.12 0.07 0.05 0.04 0.04 0.04 0.02 0.01 0.01 0.00 0.00 0.00 0.00 0.00 0.00 0.00 0.00 0.00 0.00 0.00 0.00 0.00 0.00 0.00 0.00 0.00 0.01 0.01 0.01 0.01 0.02 0.02 0.02
0.28 0.27 0.26 0.25 0.26 0.25 0.22 0.21 0.17 0.10 0.07 0.05 0.04 0.03 0.03 0.02 0.01 0.01 0.01 0.00 0.00 0.00 0.00 0.00 0.00 0.00 0.00 0.00 0.00 0.00 0.00 0.00 0.00 0.00 0.00 0.00 0.00 0.01 0.01 0.01 0.02 0.02 0.02
0.20 0.19 0.22 0.22 0.21 0.21 0.17 0.12 0.08 0.05 0.04 0.03 0.02 0.01 0.01 0.01 0.01 0.01 0.01 0.00 0.00 0.00 0.00 0.00 0.00 0.00 0.00 0.00 0.00 0.00 0.00 0.00 0.00 0.00 0.00 0.00 0.00 0.00 0.00 0.00 0.01 0.01 0.02
0.20 0.17 0.15 0.15 0.15 0.13 0.09 0.06 0.04 0.03 0.02 0.02 0.01 0.01 0.01 0.01 0.00 0.00 0.00 0.00 0.00 0.00 0.00 0.00 0.00 0.00 0.00 0.00 0.00 0.00 0.00 0.00 0.00 0.00 0.00 0.00 0.00 0.00 0.00 0.00 0.00 0.00 0.01
0.22 0.18 0.15 0.13 0.09 0.06 0.05 0.04 0.04 0.03 0.02 0.01 0.01 0.01 0.01 0.00 0.00 0.00 0.00 0.00 0.00 0.00 0.00 0.00 0.00 0.00 0.00 0.00 0.00 0.00 0.00 0.00 0.00 0.00 0.00 0.00 0.00 0.00 0.00 0.00 0.00 0.00 0.01
0.20 0.15 0.11 0.08 0.07 0.06 0.05 0.03 0.03 0.02 0.02 0.01 0.01 0.01 0.01 0.01 0.00 0.00 0.00 0.00 0.00 0.00 0.00 0.00 0.00 0.00 0.00 0.00 0.00 0.00 0.00 0.00 0.00 0.00 0.00 0.00 0.00 0.00 0.00 0.00 0.00 0.01 0.01
0.12 0.10 0.09 0.07 0.06 0.05 0.04 0.04 0.03 0.02 0.02 0.01 0.01 0.01 0.00 0.00 0.00 0.00 0.00 0.00 0.00 0.00 0.00 0.00 0.00 0.00 0.00 0.00 0.00 0.00 0.00 0.00 0.00 0.00 0.00 0.00 0.00 0.00 0.00 0.00 0.01 0.01 0.02
0.10 0.10 0.09 0.09 0.08 0.06 0.05 0.05 0.05 0.04 0.03 0.02 0.01 0.01 0.01 0.01 0.00 0.00 0.00 0.00 0.00 0.00 0.00 0.00 0.00 0.00 0.00 0.00 0.00 0.00 0.00 0.00 0.00 0.00 0.00 0.00 0.00 0.00 0.00 0.00 0.01 0.01 0.01
0.10 0.10 0.10 0.10 0.09 0.07 0.06 0.05 0.05 0.05 0.04 0.03 0.02 0.02 0.01 0.01 0.01 0.01 0.00 0.00 0.00 0.00 0.00 0.00 0.00 0.00 0.00 0.00 0.00 0.00 0.00 0.00 0.00 0.00 0.00 0.00 0.00 0.00 0.00 0.00 0.00 0.00 0.00
0.13 0.13 0.12 0.12 0.11 0.10 0.09 0.08 0.06 0.06 0.04 0.03 0.02 0.01 0.01 0.01 0.01 0.01 0.00 0.00 0.00 0.00 0.00 0.00 0.00 0.00 0.00 0.00 0.00 0.00 0.00 0.01 0.00 0.00 0.00 0.00 0.00 0.00 0.00 0.00 0.00 0.00 0.00
0.13 0.14 0.14 0.13 0.12 0.10 0.08 0.06 0.05 0.04 0.03 0.02 0.02 0.01 0.01 0.00 0.01 0.01 0.01 0.01 0.01 0.00 0.00 0.00 0.00 0.00 0.00 0.00 0.01 0.01 0.01 0.01 0.00 0.00 0.00 0.00 0.00 0.00 0.00 0.00 0.00 0.00 0.00
0.10 0.09 0.08 0.07 0.05 0.04 0.03 0.02 0.01 0.01 0.01 0.01 0.00 0.00 0.00 0.00 0.00 0.00 0.00 0.00 0.01 0.01 0.01 0.01 0.01 0.00 0.01 0.02 0.02 0.02 0.01 0.01 0.01 0.01 0.01 0.01 0.01 0.01 0.01 0.01 0.01 0.00 0.00
0.06 0.04 0.03 0.02 0.02 0.01 0.01 0.01 0.00 0.00 0.00 0.00 0.00 0.00 0.00 0.00 0.00 0.00 0.00 0.00 0.00 0.00 0.01 0.01 0.01 0.01 0.02 0.03 0.03 0.02 0.02 0.02 0.01 0.01 0.02 0.01 0.01 0.02 0.02 0.02 0.01 0.00 0.00
0.02 0.01 0.01 0.01 0.01 0.00 0.00 0.00 0.00 0.00 0.00 0.00 0.00 0.00 0.00 0.00 0.00 0.00 0.00 0.00 0.00 0.00 0.00 0.01 0.01 0.02 0.03 0.04 0.03 0.02 0.02 0.03 0.02 0.02 0.03 0.02 0.01 0.02 0.02 0.01 0.00 0.00 0.00
0.01 0.00 0.00 0.00 0.00 0.00 0.00 0.00 0.00 0.00 0.00 0.00 0.00 0.00 0.00 0.01 0.00 0.00 0.00 0.01 0.02 0.02 0.02 0.01 0.02 0.03 0.02 0.02 0.02 0.02 0.02 0.02 0.02 0.02 0.03 0.03 0.02 0.02 0.01 0.03 0.02 0.00 0.00
0.00 0.00 0.00 0.00 0.00 0.00 0.00 0.00 0.00 0.00 0.00 0.00 0.00 0.00 0.00 0.01 0.00 0.00 0.00 0.01 0.03 0.05 0.02 0.00 0.00 0.00 0.00 0.00 0.00 0.01 0.02 0.03 0.02 0.02 0.03 0.03 0.02 0.02 0.01 0.02 0.02 0.01 0.01
0.01 0.01 0.01 0.00 0.01 0.01 0.00 0.00 0.00 0.00 0.00 0.00 0.00 0.01 0.01 0.00 0.00 0.00 0.00 0.02 0.04 0.05 0.04 0.03 0.03 0.02 0.02 0.02 0.01 0.01 0.02 0.03 0.03 0.03 0.03 0.03 0.03 0.04 0.03 0.02 0.02 0.03 0.04
MSLP
1017.56 1017.78 1017.94 1018.05 1018.13 1018.18 1018.21 1018.23 1018.22 1018.20 1018.18 1018.15 1018.15 1018.19 1018.31 1018.51 1018.80 1019.20 1019.67 1020.18 1020.71 1021.20 1021.65 1022.03 1022.33 1022.58 1022.78 1022.95 1023.11 1023.25 1023.39 1023.51 1023.61 1023.69 1023.75 1023.79 1023.84 1023.89 1023.95 1024.01 1024.08 1024.14 1024.17
1017.31 1017.58 1017.79 1017.94 1018.05 1018.11 1018.14 1018.15 1018.13 1018.11 1018.09 1018.09 1018.13 1018.21 1018.37 1018.62 1018.94 1019.34 1019.79 1020.27 1020.76 1021.21 1021.63 1021.98 1022.29 1022.55 1022.79 1023.00 1023.20 1023.38 1023.55 1023.69 1023.80 1023.89 1023.94 1023.98 1024.01 1024.05 1024.09 1024.14 1024.20 1024.24 1024.28
1017.12 1017.44 1017.71 1017.93 1018.08 1018.18 1018.23 1018.25 1018.24 1018.22 1018.22 1018.24 1018.31 1018.44 1018.64 1018.92 1019.25 1019.64 1020.07 1020.51 1020.93 1021.33 1021.69 1022.01 1022.29 1022.55 1022.79 1023.02 1023.24 1023.45 1023.64 1023.80 1023.92 1024.01 1024.06 1024.09 1024.11 1024.12 1024.15 1024.18 1024.22 1024.27 1024.30
1016.99 1017.37 1017.71 1017.99 1018.20 1018.35 1018.43 1018.47 1018.47 1018.47 1018.48 1018.53 1018.63 1018.80 1019.03 1019.32 1019.67 1020.05 1020.44 1020.83 1021.20 1021.53 1021.82 1022.09 1022.33 1022.56 1022.79 1023.02 1023.25 1023.47 1023.67 1023.83 1023.95 1024.03 1024.08 1024.10 1024.10 1024.10 1024.11 1024.13 1024.16 1024.19 1024.23
1016.89 1017.32 1017.72 1018.07 1018.34 1018.53 1018.65 1018.71 1018.73 1018.74 1018.77 1018.84 1018.97 1019.16 1019.42 1019.74 1020.09 1020.46 1020.82 1021.16 1021.46 1021.73 1021.97 1022.18 1022.38 1022.58 1022.79 1023.00 1023.22 1023.44 1023.63 1023.79 1023.91 1023.98 1024.01 1024.02 1024.00 1023.99 1023.98 1023.98 1024.00 1024.03 1024.06
1016.79 1017.27 1017.72 1018.11 1018.43 1018.66 1018.81 1018.89 1018.92 1018.94 1018.98 1019.07 1019.21 1019.43 1019.71 1020.04 1020.39 1020.75 1021.09 1021.39 1021.66 1021.88 1022.07 1022.24 1022.40 1022.57 1022.76 1022.96 1023.18 1023.38 1023.56 1023.71 1023.82 1023.88 1023.89 1023.88 1023.85 1023.82 1023.79 1023.77 1023.77 1023.78 1023.79
1016.67 1017.17 1017.65 1018.08 1018.42 1018.68 1018.84 1018.93 1018.97 1019.00 1019.05 1019.15 1019.31 1019.54 1019.83 1020.16 1020.52 1020.86 1021.18 1021.47 1021.70 1021.89 1022.06 1022.21 1022.36 1022.53 1022.72 1022.92 1023.13 1023.33 1023.50 1023.64 1023.73 1023.77 1023.77 1023.74 1023.68 1023.63 1023.57 1023.53 1023.50 1023.48 1023.46
1016.52 1017.02 1017.51 1017.94 1018.30 1018.56 1018.73 1018.83 1018.88 1018.92 1018.97 1019.08 1019.25 1019.48 1019.78 1020.11 1020.45 1020.79 1021.09 1021.36 1021.58 1021.76 1021.93 1022.09 1022.26 1022.44 1022.65 1022.87 1023.09 1023.30 1023.47 1023.60 1023.67 1023.70 1023.67 1023.61 1023.53 1023.44 1023.36 1023.28 1023.20 1023.14 1023.07
1016.34 1016.84 1017.32 1017.75 1018.09 1018.36 1018.53 1018.64 1018.70 1018.74 1018.81 1018.93 1019.10 1019.34 1019.62 1019.93 1020.25 1020.56 1020.85 1021.09 1021.31 1021.50 1021.68 1021.87 1022.08 1022.31 1022.55 1022.81 1023.06 1023.29 1023.47 1023.60 1023.66 1023.66 1023.61 1023.52 1023.41 1023.28 1023.16 1023.03 1022.91 1022.78 1022.65
1016.19 1016.68 1017.14 1017.55 1017.89 1018.14 1018.32 1018.44 1018.52 1018.59 1018.68 1018.81 1018.99 1019.21 1019.47 1019.75 1020.04 1020.31 1020.55 1020.77 1020.97 1021.17 1021.37 1021.60 1021.85 1022.13 1022.44 1022.74 1023.03 1023.29 1023.48 1023.61 1023.67 1023.65 1023.57 1023.45 1023.30 1023.14 1022.96 1022.79 1022.60 1022.42 1022.22
1016.15 1016.62 1017.06 1017.45 1017.78 1018.03 1018.22 1018.36 1018.47 1018.58 1018.69 1018.84 1019.02 1019.23 1019.46 1019.69 1019.92 1020.13 1020.32 1020.49 1020.67 1020.85 1021.07 1021.32 1021.61 1021.95 1022.30 1022.65 1022.98 1023.26 1023.47 1023.60 1023.64 1023.61 1023.51 1023.36 1023.18 1022.97 1022.76 1022.53 1022.30 1022.05 1021.79
1016.30 1016.75 1017.17 1017.54 1017.86 1018.12 1018.33 1018.50 1018.64 1018.79 1018.94 1019.10 1019.29 1019.48 1019.67 1019.84 1020.00 1020.13 1020.25 1020.36 1020.48 1020.63 1020.83 1021.09 1021.40 1021.76 1022.15 1022.53 1022.88 1023.17 1023.39 1023.52 1023.55 1023.50 1023.37 1023.20 1022.99 1022.75 1022.50 1022.24 1021.96 1021.67 1021.36
1016.71 1017.14 1017.55 1017.91 1018.22 1018.49 1018.71 1018.91 1019.10 1019.28 1019.46 1019.64 1019.82 1019.99 1020.13 1020.25 1020.32 1020.37 1020.39 1020.42 1020.47 1020.57 1020.73 1020.96 1021.26 1021.61 1021.99 1022.37 1022.72 1023.00 1023.21 1023.32 1023.33 1023.26 1023.12 1022.92 1022.69 1022.44 1022.16 1021.88 1021.58 1021.26 1020.92
1017.42 1017.84 1018.23 1018.58 1018.88 1019.15 1019.39 1019.61 1019.82 1020.03 1020.23 1020.42 1020.59 1020.73 1020.83 1020.88 1020.87 1020.83 1020.76 1020.70 1020.66 1020.68 1020.78 1020.95 1021.19 1021.50 1021.84 1022.18 1022.48 1022.74 1022.91 1022.99 1022.98 1022.88 1022.72 1022.51 1022.27 1022.00 1021.72 1021.43 1021.13 1020.80 1020.46
1018.43 1018.85 1019.22 1019.55 1019.84 1020.09 1020.33 1020.55 1020.76 1020.98 1021.18 1021.36 1021.51 1021.62 1021.67 1021.65 1021.58 1021.45 1021.30 1021.15 1021.03 1020.96 1020.97 1021.05 1021.22 1021.44 1021.70 1021.96 1022.20 1022.38 1022.50 1022.53 1022.48 1022.36 1022.18 1021.95 1021.70 1021.44 1021.16 1020.88 1020.59 1020.28 1019.95
1019.69 1020.08 1020.43 1020.74 1021.00 1021.23 1021.44 1021.64 1021.83 1022.02 1022.19 1022.35 1022.46 1022.53 1022.53 1022.47 1022.34 1022.15 1021.94 1021.71 1021.52 1021.36 1021.28 1021.26 1021.32 1021.43 1021.58 1021.74 1021.87 1021.97 1022.01 1021.98 1021.88 1021.72 1021.51 1021.28 1021.02 1020.76 1020.49 1020.23 1019.95 1019.67 1019.38
1021.08 1021.45 1021.76 1022.03 1022.25 1022.43 1022.60 1022.74 1022.88 1023.02 1023.14 1023.25 1023.32 1023.34 1023.30 1023.20 1023.03 1022.81 1022.56 1022.29 1022.03 1021.81 1021.64 1021.53 1021.48 1021.47 1021.49 1021.53 1021.55 1021.54 1021.48 1021.38 1021.22 1021.01 1020.77 1020.52 1020.25 1019.99 1019.73 1019.48 1019.23 1018.98 1018.72
1022.44 1022.78 1023.06 1023.28 1023.44 1023.57 1023.66 1023.74 1023.81 1023.87 1023.92 1023.96 1023.98 1023.96 1023.88 1023.76 1023.58 1023.34 1023.08 1022.80 1022.51 1022.24 1022.01 1021.81 1021.66 1021.54 1021.44 1021.35 1021.25 1021.13 1020.97 1020.79 1020.56 1020.30 1020.03 1019.74 1019.45 1019.17 1018.91 1018.67 1018.44 1018.22 1018.00
1023.65 1023.94 1024.16 1024.33 1024.44 1024.50 1024.52 1024.52 1024.51 1024.49 1024.47 1024.44 1024.40 1024.33 1024.24 1024.10 1023.92 1023.70 1023.45 1023.17 1022.88 1022.60 1022.32 1022.06 1021.83 1021.61 1021.40 1021.20 1020.99 1020.76 1020.52 1020.25 1019.96 1019.64 1019.32 1019.00 1018.68 1018.37 1018.09 1017.84 1017.61 1017.41 1017.21
1024.56 1024.79 1024.97 1025.08 1025.14 1025.14 1025.09 1025.02 1024.94 1024.85 1024.76 1024.67 1024.58 1024.48 1024.36 1024.23 1024.06 1023.87 1023.64 1023.39 1023.12 1022.84 1022.54 1022.24 1021.95 1021.65 1021.36 1021.07 1020.76 1020.46 1020.13 1019.80 1019.44 1019.08 1018.71 1018.33 1017.98 1017.64 1017.32 1017.04 1016.80 1016.59 1016.40
1025.10 1025.28 1025.41 1025.48 1025.49 1025.44 1025.36 1025.24 1025.10 1024.96 1024.82 1024.69 1024.56 1024.44 1024.31 1024.18 1024.04 1023.87 1023.68 1023.46 1023.21 1022.94 1022.64 1022.32 1021.99 1021.64 1021.29 1020.93 1020.57 1020.20 1019.82 1019.43 1019.03 1018.62 1018.20 1017.79 1017.38 1017.00 1016.64 1016.32 1016.04 1015.81 1015.61
1025.29 1025.41 1025.50 1025.53 1025.52 1025.46 1025.35 1025.22 1025.06 1024.90 1024.73 1024.57 1024.43 1024.29 1024.16 1024.04 1023.90 1023.76 1023.59 1023.40 1023.17 1022.90 1022.61 1022.28 1021.93 1021.56 1021.17 1020.77 1020.37 1019.96 1019.55 1019.13 1018.70 1018.26 1017.82 1017.36 1016.92 1016.48 1016.08 1015.71 1015.38 1015.11 1014.88
1025.19 1025.26 1025.31 1025.33 1025.32 1025.26 1025.17 1025.05 1024.91 1024.75 1024.59 1024.42 1024.27 1024.12 1023.99 1023.86 1023.72 1023.58 1023.42 1023.23 1023.00 1022.74 1022.45 1022.11 1021.75 1021.37 1020.96 1020.55 1020.14 1019.72 1019.30 1018.87 1018.44 1017.99 1017.53 1017.05 1016.58 1016.11 1015.65 1015.23 1014.85 1014.53 1014.25
1024.92 1024.96 1025.00 1025.02 1025.02 1025.00 1024.95 1024.86 1024.75 1024.62 1024.48 1024.32 1024.17 1024.01 1023.86 1023.70 1023.55 1023.38 1023.19 1022.99 1022.75 1022.47 1022.16 1021.82 1021.45 1021.06 1020.65 1020.24 1019.84 1019.43 1019.02 1018.61 1018.19 1017.76 1017.30 1016.83 1016.35 1015.85 1015.37 1014.90 1014.48 1014.09 1013.76
1024.64 1024.67 1024.70 1024.75 1024.78 1024.80 1024.80 1024.76 1024.70 1024.60 1024.48 1024.33 1024.16 1023.98 1023.79 1023.60 1023.39 1023.18 1022.95 1022.69 1022.41 1022.11 1021.77 1021.41 1021.03 1020.63 1020.23 1019.83 1019.44 1019.05 1018.68 1018.30 1017.92 1017.52 1017.10 1016.65 1016.18 1015.70 1015.20 1014.71 1014.24 1013.80 1013.40
1024.48 1024.51 1024.56 1024.64 1024.71 1024.78 1024.82 1024.83 1024.80 1024.73 1024.61 1024.45 1024.26 1024.03 1023.79 1023.53 1023.26 1022.97 1022.67 1022.36 1022.02 1021.67 1021.29 1020.91 1020.50 1020.10 1019.70 1019.31 1018.94 1018.59 1018.25 1017.92 1017.58 1017.24 1016.87 1016.48 1016.05 1015.60 1015.12 1014.63 1014.14 1013.66 1013.21
Thickness
5738 5737 5735 5733 5733 5732 5729 5726 5726 5722 5720 5718 5717 5715 5713 5712 5710 5707 5702 5695 5691 5689 5687 5684 5682 5680 5678 5676 5674 5672 5670 5668 5666 5664 5663 5662 5661 5660 5659 5658 5657 5657 5656
5738 5736 5733 5731 5731 5729 5728 5726 5725 5721 5719 5718 5715 5712 5710 5709 5706 5702 5701 5694 5689 5685 5683 5681 5678 5675 5673 5670 5668 5666 5664 5662 5660 5658 5657 5655 5654 5653 5652 5650 5649 5649 5648
5737 5734 5733 5730 5728 5726 5724 5722 5721 5719 5717 5714 5712 5709 5707 5704 5702 5698 5697 5694 5688 5682 5679 5676 5673 5670 5668 5665 5663 5660 5658 5656 5654 5652 5651 5649 5648 5646 5644 5643 5641 5640 5639
5735 5732 5731 5729 5725 5723 5721 5720 5719 5717 5715 5712 5709 5706 5702 5698 5695 5693 5691 5688 5684 5681 5675 5672 5669 5666 5663 5660 5658 5655 5652 5650 5648 5646 5644 5643 5641 5639 5638 5636 5634 5632 5631
5733 5730 5729 5726 5722 5719 5718 5717 5715 5712 5709 5706 5702 5698 5696 5693 5690 5688 5685 5682 5678 5675 5672 5667 5663 5661 5657 5655 5653 5650 5647 5645 5642 5640 5638 5636 5634 5632 5630 5628 5626 5624 5622
5730 5727 5725 5722 5718 5716 5713 5710 5706 5704 5702 5699 5697 5691 5689 5686 5684 5682 5678 5675 5672 5669 5667 5663 5659 5656 5652 5649 5646 5644 5641 5639 5637 5634 5632 5630 5627 5625 5622 5619 5617 5615 5613
5726 5723 5721 5717 5713 5710 5708 5704 5700 5696 5694 5693 5688 5683 5680 5678 5676 5673 5671 5669 5667 5664 5661 5657 5655 5651 5648 5643 5639 5637 5634 5631 5629 5626 5624 5621 5618 5616 5613 5610 5608 5605 5603
5720 5717 5714 5712 5709 5705 5701 5698 5694 5690 5687 5685 5683 5678 5673 5670 5667 5666 5664 5662 5659 5657 5654 5651 5648 5644 5641 5638 5632 5628 5624 5621 5618 5616 5614 5611 5608 5605 5602 5600 5597 5594 5591
5715 5710 5707 5705 5703 5700 5696 5692 5688 5685 5681 5678 5678 5675 5670 5667 5666 5659 5655 5654 5651 5649 5647 5642 5639 5636 5632 5629 5625 5618 5614 5610 5606 5603 5601 5598 5595 5592 5590 5587 5584 5581 5578
5709 5706 5702 5698 5695 5693 5690 5687 5683 5681 5677 5673 5669 5667 5666 5666 5660 5653 5648 5645 5642 5640 5638 5634 5631 5626 5621 5618 5612 5606 5602 5598 5594 5590 5587 5584 5582 5579 5576 5573 5570 5567 5565
5702 5698 5694 5691 5689 5685 5682 5679 5675 5673 5671 5667 5664 5660 5656 5653 5652 5648 5642 5637 5634 5630 5627 5623 5620 5616 5610 5607 5602 5597 5590 5586 5582 5578 5575 5571 5568 5565 5562 5559 5556 5553 5550
5691 5687 5685 5682 5679 5676 5673 5669 5666 5663 5660 5657 5654 5651 5648 5645 5641 5638 5634 5628 5625 5621 5616 5612 5608 5604 5600 5596 5591 5584 5578 5574 5570 5566 5562 5558 5555 5552 5548 5544 5541 5538 5535
5681 5677 5674 5671 5667 5664 5661 5657 5654 5651 5648 5645 5641 5638 5636 5633 5631 5628 5625 5621 5616 5612 5605 5601 5598 5593 5589 5584 5579 5572 5567 5563 5557 5553 5549 5545 5541 5538 5534 5530 5527 5524 5520
5670 5666 5662 5657 5653 5649 5646 5643 5640 5637 5633 5629 5626 5623 5621 5618 5616 5613 5610 5607 5604 5602 5598 5594 5589 5582 5577 5571 5566 5559 5556 5552 5546 5540 5536 5532 5528 5524 5520 5516 5513 5509 5506
5655 5651 5646 5642 5637 5633 5630 5627 5623 5620 5616 5614 5610 5607 5605 5602 5600 5597 5595 5592 5589 5589 5589 5584 5577 5571 5563 5557 5552 5546 5544 5541 5534 5529 5524 5519 5515 5511 5507 5503 5500 5497 5494
5637 5632 5627 5624 5620 5616 5613 5609 5605 5601 5598 5595 5592 5589 5586 5585 5582 5580 5578 5575 5573 5571 5571 5570 5562 5556 5547 5541 5539 5535 5532 5528 5523 5519 5512 5507 5503 5498 5495 5491 5489 5486 5484
5618 5613 5608 5605 5601 5598 5594 5590 5587 5583 5580 5576 5574 5572 5568 5566 5565 5564 5561 5559 5557 5553 5551 5549 5545 5540 5532 5527 5525 5522 5520 5518 5516 5511 5503 5497 5492 5488 5485 5482 5479 5477 5475
5598 5594 5590 5586 5582 5578 5574 5570 5567 5565 5562 5560 5556 5554 5551 5550 5547 5545 5543 5541 5538 5532 5529 5527 5525 5523 5520 5515 5513 5509 5508 5507 5503 5499 5493 5489 5485 5481 5478 5474 5472 5469 5467
5578 5574 5571 5567 5562 5559 5555 5552 5550 5548 5546 5543 5541 5538 5535 5534 5531 5530 5525 5524 5521 5518 5513 5510 5510 5508 5506 5504 5501 5499 5497 5493 5491 5489 5486 5484 5480 5476 5473 5470 5467 5464 5461
5558 5555 5550 5547 5544 5541 5539 5537 5535 5532 5530 5528 5525 5521 5519 5516 5513 5511 5509 5506 5503 5500 5499 5496 5496 5496 5495 5493 5490 5488 5487 5484 5481 5479 5477 5475 5474 5471 5470 5467 5463 5459 5455
5539 5537 5533 5530 5527 5525 5522 5520 5519 5517 5515 5512 5509 5506 5503 5497 5492 5489 5490 5488 5486 5485 5484 5484 5484 5485 5484 5480 5477 5475 5474 5472 5471 5471 5470 5468 5468 5468 5465 5462 5458 5453 5447
5524 5521 5519 5516 5512 5508 5501 5499 5498 5500 5498 5496 5493 5489 5487 5483 5477 5473 5469 5467 5465 5467 5469 5469 5471 5471 5469 5468 5465 5463 5462 5462 5463 5464 5462 5462 5461 5460 5458 5456 5451 5445 5440
5511 5508 5505 5502 5498 5490 5484 5481 5479 5481 5481 5477 5474 5471 5471 5469 5462 5462 5460 5457 5457 5455 5453 5454 5458 5458 5458 5458 5455 5455 5454 5453 5454 5456 5456 5457 5456 5453 5451 5450 5444 5438 5433
5499 5495 5491 5488 5484 5475 5468 5464 5462 5464 5465 5461 5458 5455 5453 5451 5450 5444 5446 5450 5453 5454 5451 5449 5450 5450 5450 5449 5447 5446 5446 5447 5449 5452 5450 5450 5449 5446 5444 5441 5436 5430 5426
5486 5483 5478 5474 5470 5461 5452 5449 5446 5451 5452 5449 5446 5443 5439 5438 5432 5430 5434 5442 5447 5449 5448 5446 5444 5444 5443 5442 5440 5441 5445 5447 5449 5450 5445 5442 5440 5437 5436 5434 5430 5425 5421
5475 5472 5466 5461 5455 5448 5438 5434 5430 5438 5439 5437 5436 5434 5428 5426 5423 5422 5428 5436 5441 5444 5445 5446 5445 5445 5445 5444 5441 5439 5442 5444 5445 5444 5441 5435 5433 5429 5428 5428 5425 5421 5417